Regional Weather Roundup
Issued by NWS

Home | Current Version | Previous Version | Graphics & Text | Print | Product List | Glossary Off
Versions: 1 2 3 4 5 6 7 8 9 10 11 12 13 14 15 16 17 18 19 20 21 22 23 24 25 26 27

000
ASUS45 KCYS 271810
RWRWY

WYOMING REGIONAL WEATHER ROUNDUP
NATIONAL WEATHER SERVICE CHEYENNE WY
1100 AM MST MON FEB 27 2017

NOTE:  "FAIR" INDICATES FEW OR NO CLOUDS BELOW 12,000 FEET
WITH NO SIGNIFICANT WEATHER AND/OR OBSTRUCTIONS TO VISIBILITY.

WYZ001-271900-
YELLOWSTONE NATIONAL PARK

CITY           SKY/WX    TMP DP  RH WIND       PRES   REMARKS
LK YELLOWSTONE   N/A     15   8  73 CALM      29.51F
6HR MIN TEMP:  -3; 6HR MAX TEMP:  15; 6HR PCP:  0.01;

W YELLOWSTONE  NOT AVBL

$$
WYZ002>013-054>058-071-098>099-271900-
NORTHERN WYOMING

CITY           SKY/WX    TMP DP  RH WIND       PRES   REMARKS
JACKSON        MOSUNNY   18  12  79 S5        29.56F WCI  11
CODY           FAIR      30  12  47 NE9       29.55S WCI  22
GREYBULL       FAIR      31  16  54 CALM      29.60R
6HR MIN TEMP:  20; 6HR MAX TEMP:  31;

WORLAND        FAIR      30  16  56 W3        29.59S
6HR MIN TEMP:  17; 6HR MAX TEMP:  30;

SHERIDAN       FAIR      25  17  72 VRB5      29.61S WCI  19
6HR MIN TEMP:  15; 6HR MAX TEMP:  26;

BUFFALO        FAIR      27  12  53 NW9       29.58R WCI  18
6HR MIN TEMP:  26; 6HR MAX TEMP:  32;

GILLETTE       FAIR      35  14  42 W7        29.58R WCI  29
6HR MIN TEMP:  19; 6HR MAX TEMP:  35;

HULETT         MOCLDY    36  12  38 SW9       29.60S WCI  29
NEWCASTLE      LGT SNOW  30  25  80 S3        29.63F

$$
WYZ014>020-022>026-101>103-271900-
CENTRAL WYOMING

CITY           SKY/WX    TMP DP  RH WIND       PRES   REMARKS
BIG PINEY      CLOUDY    15   9  76 CALM      29.58F
6HR MIN TEMP:   9; 6HR MAX TEMP:  15; 6HR PCP: TRACE;

PINEDALE       CLOUDY    16  10  79 N6        29.59S WCI   7
DUBOIS         CLOUDY    21  10  63 CALM      29.50F
LANDER         FAIR      22  15  75 E9        29.56S WCI  12
6HR MIN TEMP:  13; 6HR MAX TEMP:  22; 6HR PCP:  0.02;

RIVERTON       FAIR      20  12  71 S7        29.59R WCI  11
6HR MIN TEMP:  12; 6HR MAX TEMP:  20;

CASPER         CLOUDY    28  22  78 SW10      29.57F WCI  19
6HR MIN TEMP:  20; 6HR MAX TEMP:  28;

DOUGLAS        CLOUDY    28  17  63 NW6       29.61S WCI  22
6HR MIN TEMP:  15; 6HR MAX TEMP:  28;


$$
WYZ021-027>030-104>119-271900-
SOUTHERN WYOMING

CITY           SKY/WX    TMP DP  RH WIND       PRES   REMARKS
EVANSTON       LGT SNOW  21  18  88 S8        29.59S VSB 3/4 WCI  11
6HR MIN TEMP:  20; 6HR MAX TEMP:  24; 6HR PCP: TRACE;

KEMMERER         N/A     23  16  74 S7        29.59  WCI  15
FORT BRIDGER   LGT SNOW  23  22  97 S9        29.63R WCI  13
ROCK SPRINGS   LGT SNOW  22  18  85 W9        29.60S VSB 1   WCI  12
6HR MIN TEMP:  16; 6HR MAX TEMP:  25; 6HR PCP:  0.01;

DIXON            N/A     34  26  71 SW17G25   29.61F WCI  23
RAWLINS        HVY SNOW  25  21  85 W16       29.56R VSB 1/4 WCI  12
6HR MIN TEMP:  26; 6HR MAX TEMP:  31; 6HR PCP: TRACE;

SARATOGA       MOCLDY    32  27  80 S8        29.57F WCI  25
LARAMIE        FAIR      33  19  56 SW24G31   29.55S WCI  20
6HR MIN TEMP:  16; 6HR MAX TEMP:  33;

CHEYENNE       FAIR      31  12  45 S12       29.61F WCI  22
6HR MIN TEMP:   8; 6HR MAX TEMP:  31;

TORRINGTON     PTSUNNY   22  13  68 E6        29.62F WCI  14
6HR MIN TEMP:   5; 6HR MAX TEMP:  22;

PINE BLUFFS    FAIR      36  18  48 S10G23    29.63F WCI  28

$$




USA.gov is the U.S. government's official web portal to all federal, state and local government web resources and services.